GW2364 Weather Reports


Display with metric or nautical units.
time (UTC)temp
F
wind
direction
speed
MPH
gust
MPH
rain 1hr
in
rain 24hr
in
rain mn
in
humidity
%
barometer
mb
20260503221610 80 315 3.0 8.0 0.00 0.00 0.00 35 1016.6
20260503214502 80 136 2.0 7.0 0.00 0.00 0.00 37 1017.0
20260503213003 80 111 2.0 8.0 0.00 0.00 0.00 35 1017.5
20260503211503 80 213 3.0 13.0 0.00 0.00 0.00 35 1017.5
20260503210006 80 241 2.0 11.0 0.00 0.00 0.00 35 1017.8
20260503204503 80 217 3.0 10.0 0.00 0.00 0.00 36 1018.2
20260503203003 79 74 3.0 10.0 0.00 0.00 0.00 37 1018.4
20260503201503 78 24 3.0 10.0 0.00 0.00 0.00 37 1018.6
20260503200006 79 37 3.0 12.0 0.00 0.00 0.00 37 1018.8
20260503194501 79 42 2.0 7.0 0.00 0.00 0.00 37 1019.0
20260503193002 79 236 2.0 11.0 0.00 0.00 0.00 31 1019.2
20260503191501 78 144 2.0 14.0 0.00 0.00 0.00 39 1019.2
20260503190006 79 92 1.0 10.0 0.00 0.00 0.00 37 1019.6
20260503184501 79 45 2.0 11.0 0.00 0.00 0.00 39 1019.8
20260503183000 78 41 3.0 11.0 0.00 0.00 0.00 39 1020.0
20260503181505 78 102 1.0 10.0 0.00 0.00 0.00 39 1020.3
20260503180004 78 225 2.0 9.0 0.00 0.00 0.00 37 1020.8
20260503174500 77 90 2.0 9.0 0.00 0.00 0.00 36 1021.0
20260503173002 78 182 1.0 8.0 0.00 0.00 0.00 38 1021.2
20260503171500 77 9 1.0 10.0 0.00 0.00 0.00 43 1021.3
20260503170112 76 216 1.0 9.0 0.00 0.00 0.00 40 1021.6
20260503160117 74 220 2.0 10.0 0.00 0.00 0.00 47 1022.2
20260503150104 68 240 1.0 5.0 0.00 0.00 0.00 67 1022.2
20260503110106 50 232 4.0 5.0 0.00 0.00 0.00 93 1020.6
20260503081559 56 59 1.0 2.0 0.00 0.00 0.00 79 1020.1
20260503071611 58 59 1.0 2.0 0.00 0.00 0.00 73 1020.5
20260503060115 61 59 0.0 0.0 0.00 0.00 0.00 66 1020.8
20260503054501 62 59 0.0 1.0 0.00 0.00 0.00 64 1020.8
20260503053001 61 59 0.0 2.0 0.00 0.00 0.00 65 1020.7
20260503051500 61 59 1.0 3.0 0.00 0.00 0.00 67 1020.9
20260503050006 62 59 1.0 2.0 0.00 0.00 0.00 65 1021.0
20260503044501 61 59 1.0 2.0 0.00 0.00 0.00 64 1020.7
20260503043003 62 59 1.0 2.0 0.00 0.00 0.00 64 1020.8
20260503041502 62 59 0.0 0.0 0.00 0.00 0.00 63 1020.7
20260503040005 62 59 0.0 1.0 0.00 0.00 0.00 63 1020.5
20260503034502 63 59 0.0 1.0 0.00 0.00 0.00 62 1020.6
20260503033004 64 59 0.0 0.0 0.00 0.00 0.00 59 1020.3
20260503031502 64 59 0.0 0.0 0.00 0.00 0.00 59 1020.2
20260503030004 64 59 0.0 1.0 0.00 0.00 0.00 58 1020.1
20260503024505 64 59 0.0 0.0 0.00 0.00 0.00 58 1020.0
20260503023002 64 59 0.0 1.0 0.00 0.00 0.00 58 1019.7
20260503021503 64 59 0.0 1.0 0.00 0.00 0.00 58 1019.5
20260503020004 65 59 0.0 1.0 0.00 0.00 0.00 57 1019.5
20260503014501 65 59 0.0 2.0 0.00 0.00 0.00 55 1019.4
20260503013003 66 59 0.0 2.0 0.00 0.00 0.00 53 1019.4
20260503011503 66 59 0.0 2.0 0.00 0.00 0.00 52 1019.2
20260503010003 67 59 0.0 2.0 0.00 0.00 0.00 52 1019.1
20260503004501 69 72 0.0 2.0 0.00 0.00 0.00 51 1019.0
20260503003005 70 72 0.0 2.0 0.00 0.00 0.00 50 1019.0
20260503001502 71 45 0.0 3.0 0.00 0.00 0.00 49 1019.0